Probability
0 0 0 0 0 0 0 0 0 0 0 0 0 0 0 0 0 0 0 0 0 0 0 0 0 1 1 1 2 3 4 5 5 4 3 3 4 4 4 2 1 0 0 0
0 0 0 0 0 0 0 0 0 0 0 0 0 0 0 0 0 0 0 0 0 0 0 0 0 0 0 0 1 3 3 4 5 4 4 4 4 5 4 2 1 0 0 0
0 0 0 0 0 0 0 0 0 0 0 0 0 0 0 0 0 0 0 0 0 0 0 0 0 0 0 0 1 2 3 4 5 5 4 5 6 5 4 3 1 0 0 0
0 0 0 0 0 0 0 0 0 0 0 0 0 0 0 0 0 0 0 0 0 0 0 0 0 0 0 0 1 2 3 4 5 5 5 5 5 4 3 3 2 1 0 0
0 0 0 0 0 0 0 0 0 0 0 0 0 0 0 0 0 0 0 0 0 0 0 0 0 0 0 0 1 2 3 3 4 5 4 4 4 3 3 3 3 1 0 0
0 0 0 0 0 0 0 0 0 0 0 0 0 0 0 0 0 0 0 0 0 0 0 0 0 0 0 0 1 2 3 3 3 4 3 3 3 3 3 3 3 2 1 0
0 0 0 0 0 0 0 0 0 0 0 0 0 0 0 0 0 0 0 0 0 0 0 0 0 0 0 0 0 1 2 3 3 3 3 3 3 3 3 3 3 3 2 1
0 0 0 0 0 0 0 0 0 0 0 0 0 0 0 0 0 0 0 0 0 0 0 0 0 0 0 0 0 0 1 2 3 3 3 3 3 3 3 3 3 3 2 1
0 0 0 0 0 0 0 0 0 0 0 0 0 0 0 0 0 0 0 0 0 0 0 0 0 0 0 0 0 0 0 1 2 3 3 3 3 3 3 3 3 3 2 1
0 0 0 0 0 0 0 0 0 0 0 0 0 0 0 0 0 0 0 0 0 0 0 0 0 0 0 0 0 0 0 0 1 2 3 3 3 3 3 3 3 3 2 1
0 0 0 0 0 0 0 0 0 0 0 0 0 0 0 0 0 0 0 0 0 0 0 0 0 0 0 0 0 0 0 0 0 1 3 3 3 3 3 3 3 3 3 2
0 0 0 0 0 0 0 0 0 0 0 0 0 0 0 0 0 0 0 0 0 0 0 0 0 0 0 0 0 0 0 0 0 1 2 3 3 3 3 3 3 3 3 3
0 0 0 0 0 0 0 0 0 0 0 0 0 0 0 0 0 0 0 0 0 0 0 0 0 0 0 0 0 0 0 0 0 0 1 1 3 3 3 3 3 3 3 3
0 0 0 0 0 0 0 0 0 0 0 0 0 0 0 0 0 0 0 0 0 0 0 0 0 0 0 0 0 0 0 0 0 0 0 1 2 3 3 3 3 3 3 3
0 0 0 0 0 0 0 0 0 0 0 0 0 0 0 0 0 0 0 0 0 0 0 0 0 0 0 0 0 0 0 0 0 0 0 0 1 2 3 3 3 3 3 3
0 0 0 0 0 0 0 0 0 0 0 0 0 0 0 0 0 0 0 0 0 0 0 0 0 0 0 0 0 0 0 0 0 0 0 0 0 1 2 3 3 3 3 3
0 0 0 0 0 0 0 0 0 0 0 0 0 0 0 0 0 0 0 0 0 0 0 0 0 0 0 0 0 0 0 0 0 0 0 0 0 0 1 1 2 3 3 3
0 0 0 0 0 0 0 0 0 0 0 0 0 0 0 0 0 0 0 0 0 0 0 0 0 0 0 0 0 0 0 0 0 0 0 0 0 0 0 0 1 1 2 2
0 0 0 0 0 0 0 0 0 0 0 0 0 0 0 0 0 0 0 0 0 0 0 0 0 0 0 0 0 0 0 0 0 0 0 0 0 0 0 0 0 0 1 1
0 0 0 0 0 0 0 0 0 0 0 0 0 0 0 0 0 0 0 0 0 0 0 0 0 0 0 0 0 0 0 0 0 0 0 0 0 0 0 0 0 0 0 1
0 0 0 0 0 0 0 0 0 0 0 0 0 0 0 0 0 0 0 0 0 0 0 0 0 0 0 0 0 0 0 0 0 0 0 0 0 0 0 0 0 0 0 0
0 0 0 0 0 0 0 0 0 0 0 0 0 0 0 0 0 0 0 0 0 0 0 0 0 0 0 0 0 0 0 0 0 0 0 0 0 0 0 0 0 0 0 0
0 0 0 0 0 0 0 0 0 0 0 0 0 0 0 0 0 0 0 0 0 0 0 0 0 0 0 0 0 0 0 0 0 0 0 0 0 0 0 0 0 0 0 0
0 0 0 0 0 0 0 0 0 0 0 0 0 0 0 0 0 0 0 0 0 0 0 0 0 0 0 0 0 0 0 0 0 0 0 0 0 0 0 0 0 0 0 0
0 0 0 0 0 0 0 0 0 0 0 0 0 0 0 0 0 0 0 0 0 0 0 0 0 0 0 0 0 0 0 0 0 0 0 0 0 0 0 0 0 0 0 0
0 0 0 0 0 0 0 0 0 0 0 0 0 0 0 0 0 0 0 0 0 0 0 0 0 0 0 0 0 0 0 0 0 0 0 0 0 0 0 0 0 0 0 0
Wind_Speed
3 1 2 3 4 4 4 4 4 2 1 3 5 6 5 5 4 4 3 3 3 2 2 2 2 2 2 2 2 2 1 1 1 1 1 1 1 1 1 1 2 3 3 3
2 3 3 2 2 3 4 4 3 2 1 3 4 7 5 5 5 4 4 3 3 2 2 2 3 3 2 1 1 1 1 1 1 1 1 1 1 1 1 1 2 2 2 2
3 0 0 2 2 3 3 4 3 3 3 3 4 6 6 5 5 4 3 3 3 3 2 2 2 2 1 1 1 1 1 1 1 1 1 1 1 1 1 1 1 1 2 2
1 1 1 1 2 2 3 3 3 3 2 3 3 5 5 5 5 5 4 3 3 2 2 2 2 2 1 1 1 1 1 1 1 1 1 0 0 1 1 1 1 1 1 1
1 1 1 2 2 2 1 3 3 4 4 4 4 4 5 3 5 5 4 3 2 2 2 2 2 2 1 2 1 1 1 1 1 1 1 0 1 1 1 1 0 1 1 1
1 1 1 1 2 1 0 1 2 2 1 4 5 5 5 3 4 3 3 3 3 3 3 2 2 2 2 2 1 1 1 1 1 1 1 1 1 1 1 1 1 1 0 1
2 2 2 1 1 0 1 1 1 1 2 5 3 4 5 1 1 2 2 2 3 3 3 3 3 2 2 2 1 1 1 1 1 1 1 1 1 1 1 1 1 1 1 1
2 2 3 2 1 2 3 1 2 3 3 3 2 5 3 1 2 2 1 0 1 2 3 3 2 2 1 1 1 0 0 0 1 1 1 1 1 1 1 1 1 1 1 1
1 1 2 1 1 1 2 2 1 1 3 3 5 3 1 0 1 1 1 0 1 1 2 2 2 2 2 1 1 1 1 0 0 0 1 1 1 1 1 1 1 1 1 1
1 1 2 2 1 1 1 0 1 1 2 4 5 4 3 2 2 1 1 1 1 0 1 1 2 2 1 1 1 1 0 0 0 0 1 1 1 1 1 1 1 1 1 1
1 1 2 2 4 4 3 2 2 2 3 3 4 4 1 1 1 1 1 1 1 1 1 1 1 1 1 1 1 1 1 1 1 0 0 1 1 1 1 1 1 1 1 2
1 1 2 3 1 1 3 3 4 3 4 3 3 5 2 3 3 2 2 2 2 1 1 1 1 1 1 1 1 1 1 1 0 0 0 0 1 1 1 1 1 1 1 2
0 2 1 1 1 1 3 3 3 2 1 3 4 6 1 2 2 2 2 2 2 1 1 1 1 1 0 0 0 0 0 0 0 0 0 1 1 1 1 1 1 2 2 2
1 2 4 5 2 2 3 4 4 4 4 5 7 7 5 3 3 3 3 2 2 2 0 0 1 1 1 1 0 0 0 0 0 1 0 1 1 1 1 1 1 2 2 2
1 2 3 4 4 2 4 6 6 8 8 7 6 6 6 4 4 3 2 2 2 3 2 2 2 1 1 1 1 0 0 0 0 1 1 1 1 1 1 1 2 2 2 2
1 1 1 4 4 3 6 7 8 8 8 8 8 10 5 4 3 4 4 3 3 3 3 3 3 1 1 1 1 0 1 1 0 1 1 1 1 1 1 1 2 2 2 2
2 2 2 3 2 3 7 7 8 6 5 5 8 7 4 4 5 5 4 4 4 4 4 4 3 2 1 1 1 1 1 1 1 1 1 1 1 1 1 2 2 2 2 2
3 2 2 2 1 6 6 1 4 4 5 5 4 4 4 4 5 4 3 3 4 4 4 3 2 2 1 1 0 0 0 0 1 1 1 1 1 1 2 2 2 2 2 2
1 3 2 2 4 7 3 1 2 2 5 3 4 5 4 4 4 2 3 4 4 4 4 3 2 1 1 1 1 1 0 1 1 1 1 2 2 2 2 2 2 2 2 2
2 1 2 3 3 6 3 1 1 2 4 2 1 3 4 4 3 3 4 5 4 4 3 3 2 2 1 1 1 1 0 1 1 1 2 2 2 2 2 2 2 2 2 3
2 1 3 4 4 6 1 1 2 1 4 3 2 2 2 1 3 4 4 4 3 3 3 3 2 2 2 1 1 0 1 1 1 1 2 2 2 2 2 2 2 2 2 3
5 5 5 3 4 6 1 2 3 3 2 2 2 2 2 2 3 3 4 3 3 3 3 3 2 2 2 2 1 1 1 1 2 2 2 2 2 2 2 2 2 2 2 3
4 5 4 5 5 2 3 3 2 1 2 2 2 3 2 2 3 4 3 3 3 2 2 2 2 2 2 2 1 1 1 1 2 2 2 2 3 2 2 2 2 2 2 2
3 1 1 3 4 3 3 2 2 1 2 2 2 2 2 2 3 3 3 3 3 2 2 2 2 2 2 2 2 1 1 1 1 2 2 2 2 2 2 2 2 2 2 2
2 2 2 5 4 3 3 2 1 1 2 2 3 2 2 2 3 3 3 3 2 2 2 1 1 1 2 2 2 2 2 1 1 2 2 3 2 2 2 2 2 2 2 3
3 4 4 5 3 3 3 1 0 1 2 2 3 3 2 1 2 3 2 2 2 2 1 1 1 1 2 2 2 2 2 2 1 2 2 2 2 2 2 2 3 5 5 7
Wind_Direction
172 191 206 215 230 274 301 280 287 330 18 270 253 252 223 203 220 221 209 201 189 178 140 134 128 118 103 78 74 77 67 48 36 21 7 22 14 9 24 35 38 31 18 5
171 231 252 276 257 273 290 282 292 307 306 280 269 264 242 206 206 211 213 200 186 171 173 138 129 116 103 95 79 79 68 55 43 26 5 356 347 355 6 31 37 27 14 3
191 171 236 256 265 262 271 278 285 293 308 267 290 275 232 212 199 203 215 193 176 182 184 153 128 115 109 93 81 51 42 57 60 41 41 15 10 4 14 6 360 6 2 5
219 312 282 253 274 277 268 313 310 294 282 257 215 278 242 206 198 206 208 199 184 171 167 157 156 139 141 115 78 67 58 50 54 49 38 12 335 323 321 312 322 343 357 359
157 358 280 248 299 304 330 338 306 274 265 283 242 252 260 197 217 217 207 197 171 162 164 169 164 144 123 107 91 52 63 44 32 22 356 326 329 332 336 337 321 322 337 354
215 330 346 355 1 357 339 313 291 261 256 263 230 220 262 215 213 195 191 191 179 167 162 159 141 118 102 88 90 69 60 27 23 11 347 344 359 343 340 332 309 302 313 333
197 188 153 95 63 337 300 84 6 314 240 248 236 224 247 209 66 134 176 196 190 166 158 156 149 151 132 109 96 69 49 10 6 357 346 344 341 324 305 309 303 316 314 316
211 213 171 172 165 195 233 206 185 240 253 284 262 234 236 94 61 81 103 108 202 157 156 160 162 162 143 127 121 118 297 322 345 350 343 337 345 341 330 329 307 289 284 291
208 198 112 109 353 289 205 229 296 294 281 273 253 237 270 175 25 117 135 142 259 173 150 156 155 154 154 157 168 180 224 288 328 349 337 335 346 352 329 315 315 297 304 305
305 219 171 151 204 268 291 179 124 196 250 265 264 241 233 210 248 251 232 244 260 183 150 158 162 166 174 172 166 170 196 284 280 262 278 322 326 322 321 312 310 308 309 316
320 158 187 185 207 200 186 196 212 233 246 248 277 272 358 96 182 214 277 272 231 221 186 186 152 131 141 146 170 201 208 235 251 222 261 316 315 319 322 312 312 324 313 304
266 165 228 224 233 302 226 209 183 198 244 238 265 271 6 41 43 29 356 344 345 358 142 139 131 110 116 154 188 194 222 251 250 243 277 287 308 316 320 318 324 329 309 290
160 154 177 273 253 242 250 237 220 225 246 235 240 261 334 23 29 10 347 334 347 355 52 73 104 147 179 196 189 250 272 192 15 323 253 287 299 308 299 313 321 315 306 299
329 194 205 222 244 195 233 231 215 201 220 241 240 260 285 310 335 343 342 344 336 325 328 305 273 220 204 199 199 226 347 55 9 333 258 254 274 288 302 307 301 303 308 302
70 226 245 274 290 259 240 232 219 221 229 234 257 271 282 304 317 328 334 338 335 328 321 293 284 260 228 213 222 233 243 154 282 269 280 275 279 284 294 303 301 302 307 307
90 230 284 277 267 260 259 241 228 235 245 253 272 280 283 305 324 330 336 335 324 317 314 308 297 278 260 240 251 264 270 274 259 243 260 297 305 306 299 293 293 298 296 294
177 178 224 259 278 314 265 230 212 217 223 225 245 259 314 324 322 320 321 327 316 315 314 307 295 283 274 257 222 229 258 279 268 278 295 305 312 307 304 305 300 288 285 289
175 188 212 259 318 248 244 199 188 215 249 235 253 287 311 306 310 308 325 335 322 324 317 313 313 326 333 354 34 2 2 321 296 297 307 311 311 306 309 302 292 286 286 289
211 184 208 215 247 267 253 207 151 201 273 237 254 284 307 327 321 311 1 355 333 324 320 318 321 331 347 7 70 71 18 328 303 301 310 313 300 290 291 293 295 299 299 296
16 118 205 211 233 250 252 126 88 100 272 320 289 296 318 345 318 294 346 348 339 339 339 341 352 11 20 5 52 74 298 279 290 307 316 315 306 292 287 289 296 302 298 296
147 197 220 229 240 261 266 116 93 156 260 317 323 305 306 266 255 295 331 340 343 346 352 358 4 11 2 358 53 36 325 303 319 335 324 315 310 300 293 296 297 299 300 306
183 184 202 200 225 252 149 124 188 233 303 329 330 310 290 282 301 318 329 335 345 348 351 360 7 359 359 10 32 360 325 329 347 339 322 314 310 306 309 304 302 302 303 304
206 199 198 203 220 232 187 196 221 274 303 316 312 308 302 299 301 312 320 329 334 336 340 353 359 351 357 2 8 355 326 349 349 335 322 316 312 308 307 305 302 302 303 302
229 202 229 265 267 255 220 229 250 274 287 301 303 299 290 283 293 303 310 321 327 329 335 353 3 353 343 349 356 343 337 357 344 321 313 311 314 314 313 308 305 302 300 298
235 185 235 255 274 288 253 218 225 326 318 308 311 299 279 277 288 289 296 303 310 321 332 351 343 329 332 347 345 342 348 359 341 323 317 313 312 311 314 314 311 304 283 290
214 194 206 237 232 226 260 277 15 295 291 294 301 306 309 282 275 288 290 297 306 313 324 332 330 330 329 336 336 339 346 353 336 322 317 309 310 312 312 309 314 312 300 302